Home > Weather > Basseterre > Past weeks

Flag for Saint Kitts and Nevis Weather for the Past 2 Weeks in Basseterre, Saint Kitts and Nevis

Now
75 °F

Broken clouds.


Feels Like: 76 °F
Forecast: 76 / 82 °F
Wind: 5 mph from Northeast

Location: Golden Rock

Current Time: Feb 11, 2016 at 7:32:02 AM

Latest Report: Feb 11, 2016 at 7:00 AM


Visibility: N/A

Pressure: 30.09 "Hg

Humidity: 78%

Dew point: 68 °F

Location of BasseterreLocation

Historic Weather in Basseterre — Graph

°F

Basseterre Temperature Yesterday

Maximum temperature yesterday: 86 °F (at 1:00 PM)
Minimum temperature yesterday: 77 °F (at 6:00 AM)
Average temperature yesterday: 81 °F

High & Low Weather Summary for the Past Weeks

 TemperatureHumidityPressure
High86 °F (Feb 6, 1:00 PM)100% (Feb 6, 6:00 AM)30.15 "Hg (Feb 6, 6:00 AM)
Low70 °F (Feb 5, 7:00 AM)51% (Feb 4, 12:00 PM)29.86 "Hg (Feb 4, 3:00 PM)
Average80 °F72%30.03 "Hg
* Reported Jan 27 6:00 AM — Feb 11 6:00 AM, Basseterre, Weather by CustomWeather, © 2016

Note: Actual official high and low records may vary slightly from our data, if they occured in-between our weather recording intervals... More about our weather records

Advertising

Basseterre Weather History for the Previous 24 Hours

 ConditionsComfort  
Time TempWeatherWind HumidityBarometerVisibility
6:00 AM
Thu, Feb 11
73 °FPassing clouds.7 mph89%30.07 "HgN/A
9:00 PM
Wed, Feb 10
79 °FPassing clouds.15 mph65%30.09 "HgN/A
8:00 PM79 °FPassing clouds.12 mph70%30.07 "HgN/A
7:00 PM79 °FPassing clouds.16 mph74%30.07 "HgN/A
6:00 PM79 °FPassing clouds.12 mph70%30.07 "HgN/A
5:00 PM81 °FPassing clouds.12 mph62%30.04 "HgN/A
4:00 PM82 °FPassing clouds.10 mph66%30.04 "HgN/A
3:00 PM82 °FPassing clouds.13 mph62%30.04 "HgN/A
2:00 PM84 °FScattered clouds.12 mph66%30.07 "HgN/A
1:00 PM86 °FScattered showers. Scattered clouds.12 mph62%30.09 "HgN/A
12:00 PM84 °FPassing clouds.15 mph62%30.12 "HgN/A
11:00 AM82 °FPassing clouds.14 mph74%30.12 "HgN/A
10:00 AM81 °FScattered clouds.15 mph74%30.15 "HgN/A
9:00 AM81 °FScattered clouds.13 mph70%30.12 "HgN/A
8:00 AM79 °FPassing clouds.15 mph74%30.12 "HgN/A
7:00 AM77 °FPassing clouds.16 mph74%30.09 "HgN/A
Weather by CustomWeather, © 2016

See weather overviewHow to use our weather pages